| time (UTC) | temp F | wind direction | speed knots | gust knots | rain 1hr in | rain 24hr in | rain mn in | humidity % | barometer mb |
| 20260505110823 | 50 | 205 | 1.7 | 1.7 | 0.00 | 0.00 | 0.00 | 92 | 1008.5 |
| 20260505100823 | 50 | 205 | 1.7 | 1.7 | 0.00 | 0.00 | 0.00 | 92 | 1008.3 |
| 20260505095323 | 50 | 205 | 1.7 | 1.7 | 0.00 | 0.00 | 0.00 | 92 | 1008.2 |
| 20260505093823 | 50 | 205 | 1.7 | 1.7 | 0.00 | 0.00 | 0.00 | 92 | 1008.3 |
| 20260505092323 | 50 | 210 | 1.7 | 1.7 | 0.00 | 0.00 | 0.00 | 92 | 1008.4 |
| 20260505090824 | 52 | 4 | 0.0 | 1.7 | 0.00 | 0.00 | 0.00 | 92 | 1008.1 |
| 20260505085323 | 52 | 241 | 0.9 | 2.6 | 0.00 | 0.00 | 0.00 | 93 | 1007.6 |
| 20260505083824 | 50 | 269 | 0.0 | 2.6 | 0.00 | 0.00 | 0.00 | 94 | 1007.7 |
| 20260505082324 | 49 | 10 | 0.9 | 1.7 | 0.00 | 0.00 | 0.00 | 94 | 1007.7 |
| 20260505080824 | 48 | 236 | 0.9 | 0.9 | 0.00 | 0.00 | 0.00 | 93 | 1007.6 |
| 20260505075324 | 49 | 228 | 0.0 | 0.9 | 0.00 | 0.00 | 0.00 | 93 | 1007.7 |
| 20260505073824 | 49 | 228 | 0.9 | 1.7 | 0.00 | 0.00 | 0.00 | 93 | 1007.6 |
| 20260505072324 | 49 | 221 | 0.0 | 0.9 | 0.00 | 0.00 | 0.00 | 92 | 1007.4 |
| 20260505070824 | 49 | 221 | 0.0 | 0.0 | 0.00 | 0.00 | 0.00 | 92 | 1007.2 |
| 20260505065324 | 50 | 221 | 0.0 | 0.9 | 0.00 | 0.00 | 0.00 | 91 | 1007.1 |
| 20260505063824 | 50 | 226 | 0.0 | 0.0 | 0.00 | 0.00 | 0.00 | 91 | 1007.3 |
| 20260505062324 | 51 | 330 | 0.0 | 0.9 | 0.00 | 0.00 | 0.00 | 91 | 1007.4 |
| 20260505060824 | 51 | 330 | 0.0 | 0.9 | 0.00 | 0.00 | 0.00 | 90 | 1007.5 |
| 20260505055324 | 51 | 330 | 0.0 | 0.0 | 0.00 | 0.00 | 0.00 | 89 | 1007.6 |
| 20260505053824 | 52 | 330 | 0.0 | 0.0 | 0.00 | 0.00 | 0.00 | 87 | 1007.7 |
| 20260505052324 | 52 | 330 | 0.0 | 0.0 | 0.00 | 0.00 | 0.00 | 87 | 1007.7 |
| 20260505050824 | 53 | 330 | 0.0 | 0.9 | 0.00 | 0.00 | 0.00 | 86 | 1007.7 |
| 20260505040824 | 54 | 330 | 0.0 | 0.9 | 0.00 | 0.00 | 0.00 | 82 | 1007.5 |
| 20260505035324 | 54 | 330 | 0.0 | 0.9 | 0.00 | 0.00 | 0.00 | 83 | 1007.4 |
| 20260505033824 | 54 | 213 | 0.9 | 0.9 | 0.00 | 0.00 | 0.00 | 81 | 1007.4 |
| 20260505032324 | 55 | 213 | 0.0 | 0.0 | 0.00 | 0.00 | 0.00 | 80 | 1007.3 |
| 20260505030824 | 55 | 213 | 0.0 | 0.0 | 0.00 | 0.00 | 0.00 | 79 | 1007.4 |
| 20260505025324 | 56 | 213 | 0.0 | 0.0 | 0.00 | 0.00 | 0.00 | 79 | 1007.5 |
| 20260505023824 | 56 | 213 | 0.0 | 0.9 | 0.00 | 0.00 | 0.00 | 78 | 1007.3 |
| 20260505022324 | 56 | 213 | 0.0 | 0.9 | 0.00 | 0.00 | 0.00 | 77 | 1007.3 |
| 20260505020824 | 57 | 213 | 0.0 | 0.9 | 0.00 | 0.00 | 0.00 | 75 | 1007.4 |
| 20260505015324 | 58 | 245 | 0.0 | 0.9 | 0.00 | 0.00 | 0.00 | 72 | 1007.3 |
| 20260505013824 | 60 | 245 | 0.0 | 1.7 | 0.00 | 0.00 | 0.00 | 68 | 1007.2 |
| 20260505012324 | 61 | 230 | 0.9 | 2.6 | 0.00 | 0.00 | 0.00 | 65 | 1006.8 |
| 20260505010824 | 63 | 215 | 0.0 | 1.7 | 0.00 | 0.00 | 0.00 | 60 | 1006.6 |
| 20260505005324 | 64 | 231 | 0.9 | 1.7 | 0.00 | 0.00 | 0.00 | 58 | 1006.7 |
| 20260505003824 | 67 | 224 | 0.9 | 1.7 | 0.00 | 0.00 | 0.00 | 51 | 1006.5 |
| 20260505002325 | 70 | 221 | 0.0 | 1.7 | 0.00 | 0.00 | 0.00 | 45 | 1006.4 |
| 20260505000825 | 72 | 217 | 1.7 | 2.6 | 0.00 | 0.00 | 0.00 | 42 | 1006.4 |
| 20260504235325 | 72 | 279 | 1.7 | 4.3 | 0.00 | 0.00 | 0.00 | 41 | 1006.1 |
| 20260504233825 | 73 | 333 | 1.7 | 5.2 | 0.00 | 0.00 | 0.00 | 41 | 1005.8 |
| 20260504232325 | 74 | 165 | 0.9 | 4.3 | 0.00 | 0.00 | 0.00 | 40 | 1005.7 |
| 20260504230825 | 74 | 219 | 0.0 | 7.0 | 0.00 | 0.00 | 0.00 | 40 | 1005.6 |
| 20260504225325 | 75 | 150 | 1.7 | 7.8 | 0.00 | 0.00 | 0.00 | 39 | 1005.5 |
| 20260504223825 | 75 | 142 | 4.3 | 10.4 | 0.00 | 0.00 | 0.00 | 39 | 1005.7 |
| 20260504222325 | 75 | 269 | 0.9 | 8.7 | 0.00 | 0.00 | 0.00 | 38 | 1005.8 |
| 20260504220825 | 76 | 57 | 3.5 | 13.9 | 0.00 | 0.00 | 0.00 | 37 | 1005.7 |
| 20260504215325 | 76 | 84 | 2.6 | 13.0 | 0.00 | 0.00 | 0.00 | 36 | 1005.7 |
| 20260504213825 | 76 | 354 | 3.5 | 13.0 | 0.00 | 0.00 | 0.00 | 35 | 1005.8 |
| 20260504212325 | 76 | 122 | 4.3 | 8.7 | 0.00 | 0.00 | 0.00 | 35 | 1005.7 |
| 20260504210825 | 76 | 169 | 4.3 | 8.7 | 0.00 | 0.00 | 0.00 | 35 | 1005.8 |
| 20260504205325 | 76 | 311 | 1.7 | 10.4 | 0.00 | 0.00 | 0.00 | 34 | 1005.8 |
| 20260504203825 | 76 | 271 | 4.3 | 13.0 | 0.00 | 0.00 | 0.00 | 33 | 1006.0 |
| 20260504202325 | 76 | 273 | 3.5 | 9.6 | 0.00 | 0.00 | 0.00 | 32 | 1006.1 |
| 20260504200825 | 76 | 185 | 9.6 | 20.9 | 0.00 | 0.00 | 0.00 | 32 | 1006.2 |
| 20260504195325 | 75 | 284 | 1.7 | 11.3 | 0.00 | 0.00 | 0.00 | 34 | 1006.6 |
| 20260504193825 | 75 | 174 | 3.5 | 10.4 | 0.00 | 0.00 | 0.00 | 33 | 1006.7 |
| 20260504192325 | 76 | 201 | 2.6 | 13.0 | 0.00 | 0.00 | 0.00 | 33 | 1007.0 |
| 20260504190825 | 76 | 233 | 5.2 | 13.9 | 0.00 | 0.00 | 0.00 | 32 | 1007.1 |
| 20260504185325 | 76 | 173 | 3.5 | 10.4 | 0.00 | 0.00 | 0.00 | 32 | 1007.4 |
| 20260504183825 | 75 | 205 | 0.0 | 12.2 | 0.00 | 0.00 | 0.00 | 33 | 1007.5 |
| 20260504182325 | 75 | 182 | 6.1 | 9.6 | 0.00 | 0.00 | 0.00 | 33 | 1007.8 |
| 20260504180825 | 74 | 246 | 5.2 | 15.6 | 0.00 | 0.00 | 0.00 | 35 | 1008.2 |
| 20260504175326 | 74 | 185 | 4.3 | 11.3 | 0.00 | 0.00 | 0.00 | 35 | 1008.4 |
| 20260504173825 | 73 | 153 | 5.2 | 18.2 | 0.00 | 0.00 | 0.00 | 34 | 1008.7 |
| 20260504172325 | 73 | 202 | 13.0 | 17.4 | 0.00 | 0.00 | 0.00 | 36 | 1008.8 |
| 20260504170825 | 72 | 239 | 7.0 | 12.2 | 0.00 | 0.00 | 0.00 | 36 | 1009.1 |
| 20260504150826 | 67 | 248 | 0.0 | 10.4 | 0.00 | 0.00 | 0.00 | 40 | 1011.0 |
| 20260504140826 | 63 | 205 | 3.5 | 8.7 | 0.00 | 0.00 | 0.00 | 43 | 1011.5 |